sat.trackr.live / text

‹ back to catalog

COSMOS 2534 (758)

NORAD 44299 · 2019-030A

PAYLOAD ACTIVE UNKNOWN

§ Identity

Operator
Country
CIS
Launch date
2019-05-27
Launch site
PLMSC
Launch vehicle
Mass (kg)
RCS (m²)

Purposes: nav

External: N2YO · Heavens-Above · Gunter

§ Orbital elements

Epoch: 2026-05-24T03:20:39.664608Z

Period
675.73 min
Inclination
64.3666°
Eccentricity
0.0012892
Mean motion
2.13102273 rev/d
Perigee alt
19,097.0 km
Apogee alt
19,162.8 km
Semi-major
25,508.0 km
B*
0.0000e+0
RAAN
193.4262°
Arg perigee
275.4828°
Mean anomaly
134.9025°
Rev number
5,441

§ Raw data

COSMOS 2534 (758)1 44299U 19030A   26144.13934797  .00000034  00000+0  00000+0 0  99962 44299  64.3666 193.4262 0012892 275.4828 134.9025  2.13102273 54415

JSON: /api/v1/satellites/44299 · /tle

For live sub-satellite position, see the globe view (requires WebGL).

§ Visibility from observer

Set your observer location to see the next 7 days of passes ≥ 10°. The values pass through the URL so the page stays shareable.

No JS? Fill the form by hand. The geolocation button needs JavaScript.